Lexington Weather

Lexington, Massachusetts, USA

43°F
4/22/2024 8:38am 
  • Lexington Conditions: Clear
  • Temperature: 43.2°F / 6.2°CWarmer 4.0°F than last hour.
  • Dew Point: 27.1°FDecreased 2.7°Fsince last hour.
  • Relative Humidity: 53%Decreased 16.0% since last hour.
  • Wind: Calm, 10-min avg: Calm, gust: None
  • Barometer: 29.96 inRising 0.02  inHg/hr Rising Slowly
  • Visibility: 10 miles
  • Rain Today: 0.00 in
  •   

Regional Weather Roundup
for Boston, MA

        
000
ASUS41 KBOX 211010
RWRBOX

REGIONAL WEATHER ROUNDUP
NATIONAL WEATHER SERVICE BOSTON/NORTON MA
600 AM EDT SUN APR 21 2024

NOTE:  "FAIR" INDICATES FEW OR NO CLOUDS BELOW 12,000 FEET WITH NO 
SIGNIFICANT WEATHER AND/OR OBSTRUCTIONS TO VISIBILITY.

MAZALL-211100-
EASTERN MASSACHUSETTS
  
CITY           SKY/WX    TMP DP  RH WIND       PRES   REMARKS
BOSTON         PTCLDY    41  26  55 W10       29.95R                  
BEVERLY        CLEAR     36  26  67 W6        29.93R WCI  31          
LAWRENCE       CLEAR     36  25  64 W6        29.95S WCI  31          
BEDFORD        CLEAR     34  26  72 NW3       29.94R                  
NORWOOD        CLEAR     36  28  73 CALM      29.96R                  
MARSHFIELD     CLEAR     34  30  86 CALM      29.95R                  
PLYMOUTH       CLEAR     31  28  89 CALM      29.95R                  
TAUNTON        CLEAR     32  28  85 CALM      29.96R                  
NEW BEDFORD    PTCLDY    34  29  82 CALM      29.96R                  
$$

MAZALL-211100-
CAPE COD AND THE ISLANDS
  
CITY           SKY/WX    TMP DP  RH WIND       PRES   REMARKS
FALMOUTH       CLEAR     34  28  80 NW7       29.95R WCI  28          
HYANNIS        CLEAR     38  27  64 NW5       29.94R                  
CHATHAM        CLEAR     41  32  70 VRB3      29.94R                  
PROVINCETOWN   CLEAR     43  33  68 NW13      29.94F                  
NANTUCKET      PTCLDY    42  31  64 NW10      29.96R                  
MARTHAS VNYRD  PTCLDY    40  30  67 NW5       29.97R                  
$$
 
MAZALL-211100-
CENTRAL AND WESTERN MASSACHUSETTS
  
CITY           SKY/WX    TMP DP  RH WIND       PRES   REMARKS
WORCESTER      CLEAR     36  23  59 W14       29.92S WCI  27          
FITCHBURG      CLEAR     35  24  64 N5        29.96R WCI  31          
ORANGE         CLEAR     27  24  89 N6        29.97R WCI  20          
SPRINGFIELD    CLEAR     32  26  76 NW6       29.94F WCI  27          
WESTFIELD      CLEAR     33  27  78 CALM      29.98S                  
NORTH ADAMS    PTCLDY    30  26  85 NW5       30.00R WCI  25          
PITTSFIELD     CLEAR     32  24  72 NW6       29.96S WCI  26          
$$
 
RIZALL-211100-
RHODE ISLAND
  
CITY           SKY/WX    TMP DP  RH WIND       PRES   REMARKS
PROVIDENCE     PTCLDY    38  27  64 W5        29.98R                  
NEWPORT        PTCLDY    38  27  64 NW7       29.97R                  
BLOCK ISLAND   PTCLDY    38  28  67 NW7       30.01R                  
SMITHFIELD     CLEAR     36  26  67 W6        29.96R WCI  31          
WESTERLY       PTCLDY    34  27  75 CALM      29.99R                  
$$
 
CTZALL-211100-
CONNECTICUT
  
CITY           SKY/WX    TMP DP  RH WIND       PRES   REMARKS
BRADLEY INTL   PTCLDY    38  26  62 W6        29.99S                  
HARTFORD       PTCLDY    40  27  59 W5        30.00R                  
PLAINVILLE     FAIR      35  29  78 CALM      30.01R                  
BRIDGEPORT     PTCLDY    40  27  59 W6        30.04R                  
DANBURY        PTCLDY    32  26  78 SW3       30.03R                  
GROTON         PTCLDY    36  27  69 NW6       30.00R WCI  31          
NEW HAVEN      PTCLDY    43  29  57 VRB3      30.02R                  
CHESTER        PTCLDY    37  27  65 NW7       29.99R                  
MERIDEN        PTCLDY    36  27  69 NW3       30.02R                  
WILLIMANTIC    PTCLDY    34  28  79 W3        29.99R                  
OXFORD         PTCLDY    34  25  69 NW5       30.01R WCI  30          
$$

MEZ002-015-021-024-NHZ003-005-008-011-012-014-VTZ005-008-211100-
NORTHERN NEW ENGLAND
  
CITY           SKY/WX    TMP DP  RH WIND       PRES   REMARKS
PORTLAND ME    CLEAR     36  29  75 SW3       29.92S                  
BANGOR ME      PTCLDY    33  32  96 W3        29.86R                  
CONCORD NH     CLEAR     28  26  92 CALM      29.93F                  
MANCHESTER NH  CLEAR     35  26  69 CALM      29.92F                  
NASHUA NH      CLEAR     31  29  92 CALM      29.96R                  
PORTSMOUTH NH  PTCLDY    38  27  63 W7        29.92S                  
JAFFREY NH     CLEAR     32  24  72 SE5       29.94R WCI  27          
KEENE NH       CLEAR     27  26  96 SW3       29.97R                  
BURLINGTON VT  PTCLDY    36  26  67 SW3       29.94R                  
MT. WASHINGTON NOT AVBL                                               
$$

NYZ052-076-211100-
EASTERN NEW YORK
  
CITY           SKY/WX    TMP DP  RH WIND       PRES   REMARKS
ALBANY         PTCLDY    33  25  72 S3        30.02S                  
NEW YORK CITY  PTCLDY    44  24  45 NW7       30.05R                  
$$
 
ANZALL-211100-
MARINE OBSERVATIONS
  
STATION/POSITION TIME  TEMP    WIND        PRES    VSBY  WAVE
                       AIR SEA DIR/SP/G                  HT/PER
                 (UTC) (F)     (DEG/KT/KT) (MB)    (MI)  (FT/S)
BOSTON BUOY      0950   43     300/ 12/ 16 1013.7R         2/ 3
BUZZARDS BAY     0900   43     320/ 14/ 16 1014.8F
NANTUCKET SOUND  0950   44 47  310/ 14/ 17 1013.9R         2/ 3
MASS BAY-STELLWA 0804   44 46  310/ 12/ 16 1013.8F  1 7/8  1/ 3
ISLE OF SHOALS   0900   42     290/ 14/ 16 1012.5F
S OF BLOCK IS    0956      44                N/A           3/ 8
$$

......................KEY.........................
  SKY/WX - SKY CONDITION/PRESENT WEATHER
  TMP    - TEMPERATURE IN FAHRENHEIT
  DWPT   - DEWPOINT IN FAHRENHEIT
  RH     - RELATIVE HUMIDITY IN PERCENT
  WIND   - DIRECTION AND SPEED IN MPH
  PRES   - MEAN SEA LEVEL PRESSURE IN INCHES OF HG
  WCI    - WIND CHILL INDEX
  VSB    - VISIBILITY IN MILES
  HX     - HEAT INDEX
  TC     - TEMPERATURE IN CELSIUS
  VRB    - VARIABLE WIND DIRECTION
  N/A    - NOT AVAILABLE
  
      

Other recent Regional Weather Roundups

Mon Apr 22, 8:10am EDT

Mon Apr 22, 7:10am EDT

Mon Apr 22, 6:10am EDT

Mon Apr 22, 5:10am EDT

Mon Apr 22, 4:10am EDT

Mon Apr 22, 3:10am EDT

Mon Apr 22, 2:10am EDT

Mon Apr 22, 1:10am EDT

Mon Apr 22, 12:10am EDT

Sun Apr 21, 11:10pm EDT

Sun Apr 21, 10:10pm EDT

Sun Apr 21, 9:10pm EDT

Sun Apr 21, 8:10pm EDT

Sun Apr 21, 7:10pm EDT

Sun Apr 21, 6:10pm EDT

Sun Apr 21, 5:10pm EDT

Sun Apr 21, 4:10pm EDT

Sun Apr 21, 3:10pm EDT

Sun Apr 21, 2:10pm EDT

Sun Apr 21, 1:10pm EDT

Sun Apr 21, 12:10pm EDT

Sun Apr 21, 11:10am EDT

Sun Apr 21, 10:10am EDT

Sun Apr 21, 9:10am EDT

Sun Apr 21, 8:10am EDT

Sun Apr 21, 7:10am EDT

Sun Apr 21, 5:10am EDT

Sun Apr 21, 4:10am EDT

Sun Apr 21, 3:10am EDT

Sun Apr 21, 2:10am EDT

Sun Apr 21, 1:10am EDT

Sun Apr 21, 12:10am EDT

Sat Apr 20, 11:10pm EDT

Sat Apr 20, 10:10pm EDT

Sat Apr 20, 9:10pm EDT

Sat Apr 20, 8:10pm EDT

Sat Apr 20, 7:10pm EDT

Sat Apr 20, 6:10pm EDT

Sat Apr 20, 5:10pm EDT

Sat Apr 20, 4:10pm EDT

Sat Apr 20, 3:10pm EDT

Sat Apr 20, 2:10pm EDT

Sat Apr 20, 1:10pm EDT

Sat Apr 20, 12:10pm EDT

Sat Apr 20, 11:10am EDT

Sat Apr 20, 10:10am EDT

Sat Apr 20, 9:10am EDT

Sat Apr 20, 8:10am EDT

Sat Apr 20, 7:10am EDT

Sat Apr 20, 6:10am EDT

Sat Apr 20, 5:10am EDT

Sat Apr 20, 4:10am EDT

Sat Apr 20, 3:10am EDT

Sat Apr 20, 2:10am EDT

Sat Apr 20, 1:10am EDT

Sat Apr 20, 12:10am EDT

Fri Apr 19, 11:10pm EDT

Fri Apr 19, 10:10pm EDT

Fri Apr 19, 9:10pm EDT

Fri Apr 19, 8:10pm EDT

Fri Apr 19, 7:10pm EDT

Fri Apr 19, 6:10pm EDT

Fri Apr 19, 5:10pm EDT

Fri Apr 19, 4:10pm EDT

Fri Apr 19, 3:10pm EDT

Fri Apr 19, 2:10pm EDT

Fri Apr 19, 1:10pm EDT

Fri Apr 19, 12:10pm EDT

Fri Apr 19, 11:10am EDT

Fri Apr 19, 10:10am EDT

Fri Apr 19, 9:10am EDT

Fri Apr 19, 8:10am EDT

Fri Apr 19, 7:10am EDT

Fri Apr 19, 6:10am EDT

Fri Apr 19, 5:10am EDT

Fri Apr 19, 4:10am EDT

Fri Apr 19, 3:10am EDT

Fri Apr 19, 2:10am EDT

Fri Apr 19, 1:10am EDT

Fri Apr 19, 12:10am EDT

Thu Apr 18, 11:10pm EDT

Thu Apr 18, 10:10pm EDT

Thu Apr 18, 9:10pm EDT

Thu Apr 18, 8:10pm EDT

Thu Apr 18, 7:10pm EDT

Thu Apr 18, 6:10pm EDT

Thu Apr 18, 5:10pm EDT

Thu Apr 18, 4:10pm EDT

Thu Apr 18, 3:10pm EDT

Thu Apr 18, 2:10pm EDT

Thu Apr 18, 1:10pm EDT

Thu Apr 18, 12:10pm EDT

Thu Apr 18, 11:10am EDT

Thu Apr 18, 10:10am EDT

Thu Apr 18, 9:10am EDT

Thu Apr 18, 8:10am EDT

Thu Apr 18, 7:10am EDT

Thu Apr 18, 6:10am EDT

Thu Apr 18, 5:10am EDT

Thu Apr 18, 4:10am EDT

Thu Apr 18, 3:10am EDT

Thu Apr 18, 2:10am EDT

Thu Apr 18, 1:10am EDT

Thu Apr 18, 12:10am EDT

Wed Apr 17, 11:10pm EDT

Wed Apr 17, 10:10pm EDT

Wed Apr 17, 9:10pm EDT

Wed Apr 17, 8:10pm EDT

Wed Apr 17, 7:10pm EDT

Wed Apr 17, 6:10pm EDT

Wed Apr 17, 5:10pm EDT

Wed Apr 17, 4:10pm EDT

Wed Apr 17, 3:10pm EDT

Wed Apr 17, 2:10pm EDT

Wed Apr 17, 1:10pm EDT

Wed Apr 17, 12:10pm EDT

Wed Apr 17, 11:10am EDT

Wed Apr 17, 10:10am EDT

Wed Apr 17, 9:10am EDT

Wed Apr 17, 8:10am EDT

Wed Apr 17, 7:10am EDT

Wed Apr 17, 6:10am EDT

Wed Apr 17, 5:10am EDT

Wed Apr 17, 4:10am EDT

Wed Apr 17, 3:10am EDT

Wed Apr 17, 2:10am EDT

Wed Apr 17, 1:10am EDT

Wed Apr 17, 12:10am EDT

Tue Apr 16, 11:10pm EDT

Tue Apr 16, 10:10pm EDT

Tue Apr 16, 9:10pm EDT

Tue Apr 16, 8:10pm EDT

Tue Apr 16, 7:10pm EDT

Tue Apr 16, 6:10pm EDT

Tue Apr 16, 5:10pm EDT

Tue Apr 16, 4:10pm EDT

Tue Apr 16, 3:10pm EDT

Tue Apr 16, 2:10pm EDT

Tue Apr 16, 1:10pm EDT

Tue Apr 16, 12:10pm EDT

Tue Apr 16, 11:10am EDT

Tue Apr 16, 10:10am EDT

Tue Apr 16, 9:10am EDT

Tue Apr 16, 8:10am EDT

Tue Apr 16, 7:10am EDT

Tue Apr 16, 6:10am EDT

Tue Apr 16, 5:10am EDT

Tue Apr 16, 4:10am EDT

Tue Apr 16, 3:10am EDT

Tue Apr 16, 2:10am EDT

Tue Apr 16, 1:10am EDT

Tue Apr 16, 12:10am EDT

Mon Apr 15, 11:10pm EDT

Mon Apr 15, 10:10pm EDT

Mon Apr 15, 9:10pm EDT

Mon Apr 15, 8:10pm EDT

Mon Apr 15, 7:10pm EDT

Mon Apr 15, 6:10pm EDT

Mon Apr 15, 5:10pm EDT

Mon Apr 15, 4:10pm EDT

Mon Apr 15, 3:10pm EDT

Mon Apr 15, 2:10pm EDT

Mon Apr 15, 1:10pm EDT

Mon Apr 15, 12:10pm EDT

Mon Apr 15, 11:10am EDT

Mon Apr 15, 10:10am EDT

Mon Apr 15, 9:10am EDT